SCP
0 0 0 0 0 0 0 0 0 0 0 0 0 0 0 0 0 0 0 1 1 1 1 1 1 1 1 1 1 1 1 1 1 1 1 1 0 0 0 0 0 0 1 1
0 0 0 0 0 0 0 0 0 0 0 0 0 0 0 0 0 0 0 1 1 1 1 1 1 1 1 1 1 1 1 1 1 1 1 1 0 0 1 0 1 1 1 1
0 0 0 0 0 0 0 0 0 0 0 0 0 0 0 0 0 0 0 1 1 1 1 1 1 1 1 1 1 1 1 1 1 1 1 1 1 1 1 1 1 1 1 1
0 0 0 0 0 0 0 0 0 0 0 0 0 0 0 0 0 1 1 1 1 1 1 1 1 1 1 1 1 1 1 1 1 1 1 1 1 1 1 1 1 1 1 1
0 0 0 0 0 0 0 0 0 0 0 0 0 0 0 1 1 1 1 1 1 1 1 1 1 1 1 1 1 1 1 1 1 1 1 1 1 1 1 1 1 1 1 1
0 0 0 0 0 0 0 0 0 0 0 0 0 0 1 1 1 1 1 1 1 1 1 1 1 1 1 1 1 1 1 1 1 1 1 1 1 1 1 1 1 1 1 1
0 0 0 0 0 0 0 0 0 0 0 1 1 1 1 1 1 1 1 1 1 1 1 1 1 1 1 1 1 1 1 1 1 1 1 1 1 1 1 1 1 1 1 1
0 0 0 0 0 0 0 0 1 1 1 1 1 1 1 1 1 1 1 1 1 1 1 1 1 1 1 1 1 1 1 1 1 1 1 1 1 1 1 1 1 1 1 1
0 0 0 0 0 0 0 1 1 1 1 1 1 1 1 1 1 1 1 1 1 1 1 1 1 1 1 1 1 1 1 1 1 1 1 1 1 1 1 1 1 1 1 1
0 0 0 0 0 0 0 0 1 1 1 1 1 1 1 1 1 1 1 1 1 1 1 1 1 1 1 1 1 1 1 1 1 1 1 1 1 1 1 1 1 1 1 1
0 0 0 0 0 0 1 1 1 1 1 1 1 1 1 1 1 1 1 1 1 1 1 1 1 1 1 1 1 1 1 1 1 1 1 1 1 1 1 1 1 1 1 1
0 0 0 0 0 1 1 1 1 1 1 1 1 1 1 1 1 1 1 1 1 1 1 1 1 1 1 1 1 1 1 1 1 1 1 1 1 1 1 0 0 0 0 0
0 0 0 0 0 1 1 1 1 1 1 1 1 1 1 1 1 1 1 1 1 1 1 1 1 1 1 1 1 1 1 1 1 1 1 1 1 1 0 0 0 0 0 0
0 0 0 0 0 1 1 1 1 1 1 1 1 1 1 1 1 1 1 1 1 1 1 1 1 1 1 1 1 1 1 1 1 1 1 1 1 1 0 0 0 0 0 0
0 0 0 0 0 0 0 0 0 0 0 0 1 1 1 1 1 1 1 1 1 1 1 1 1 1 1 1 1 1 1 1 1 1 1 1 1 1 1 1 1 1 0 0
0 0 0 0 0 0 0 0 0 0 0 0 0 1 1 1 1 0 0 1 1 1 1 1 1 1 1 1 1 1 1 1 1 1 1 1 1 1 1 1 1 1 1 1
0 0 0 0 0 0 0 0 0 0 0 0 0 0 0 1 0 0 0 0 0 0 0 1 1 1 1 1 1 1 1 1 1 1 1 1 1 1 1 1 1 1 1 1
0 0 0 0 0 0 0 0 0 0 0 0 0 0 0 0 0 0 0 0 0 0 0 0 0 1 1 0 0 0 0 0 1 1 1 1 1 1 1 1 1 1 1 1
0 0 0 0 0 0 0 0 0 0 0 0 0 0 0 0 0 0 0 0 0 0 0 0 0 0 0 0 0 0 0 0 1 1 1 1 1 1 1 1 1 1 1 1
0 0 0 0 0 0 0 0 0 0 0 0 0 0 0 0 0 0 0 0 0 0 0 0 0 0 0 0 0 0 0 0 0 0 0 0 1 1 1 1 1 1 1 1
0 0 0 0 0 0 0 0 0 0 0 0 0 0 0 0 0 0 0 0 0 0 0 0 0 0 0 0 0 0 0 0 0 0 0 0 0 0 0 1 1 1 1 0
0 0 0 0 0 0 0 0 0 0 0 0 0 0 0 0 0 0 0 0 0 0 0 0 0 0 0 0 0 0 0 0 0 0 0 0 0 0 0 0 0 1 0 0
0 0 0 0 0 0 0 0 0 0 0 0 0 0 0 0 0 0 0 0 0 0 0 0 0 0 0 0 0 0 0 0 0 0 0 0 0 0 0 0 0 0 0 0
0 0 0 0 0 0 0 0 0 0 0 0 0 0 0 0 0 0 0 0 0 0 0 0 0 0 0 0 0 0 0 0 0 0 0 0 0 0 0 0 0 0 0 0
0 0 0 0 0 0 0 0 0 0 0 0 0 0 0 0 0 0 0 0 0 0 0 0 0 0 0 0 0 0 0 0 0 0 0 0 0 0 0 0 0 0 0 0
0 0 0 0 0 0 0 0 0 0 0 0 0 0 0 0 0 0 0 0 0 0 0 0 0 0 0 0 0 0 0 0 0 0 0 0 0 0 0 0 0 0 0 0
0 0 0 0 0 0 0 0 0 0 0 0 0 0 0 0 0 0 0 0 0 0 0 0 0 0 0 0 0 0 0 0 0 0 0 0 0 0 0 0 0 0 0 0
Wind_Speed
9 6 7 10 11 12 13 12 11 8 7 4 2 3 3 3 4 5 6 6 7 6 6 6 6 6 6 6 6 6 6 6 5 5 5 4 4 4 3 3 4 3 4 4
10 10 10 11 12 13 12 12 12 10 8 3 2 2 2 3 4 5 5 6 6 7 7 6 6 6 6 6 6 6 6 6 5 5 5 5 4 4 3 3 3 3 4 4
11 10 11 15 14 13 12 10 10 11 6 2 3 3 3 3 4 5 4 5 5 6 6 6 6 6 6 6 6 6 6 5 5 5 4 4 4 4 4 4 3 4 4 4
9 9 15 7 4 8 9 9 8 7 5 4 3 2 2 2 3 3 3 4 5 5 6 6 5 6 6 6 6 6 6 5 5 5 4 4 4 4 4 4 4 4 5 4
9 13 12 7 6 7 8 8 6 6 6 4 2 3 4 2 1 1 1 2 3 4 5 5 5 5 5 5 6 6 6 5 5 5 5 5 5 5 4 4 4 5 5 5
10 13 13 6 5 3 7 9 4 4 4 3 4 7 2 3 1 1 1 2 2 3 4 5 5 5 5 5 5 5 5 5 4 5 5 5 5 5 4 4 4 5 4 4
13 12 8 2 5 6 9 2 3 3 3 3 4 3 3 1 1 1 2 2 2 3 3 3 4 4 5 4 4 4 3 4 4 4 5 5 4 4 4 4 4 5 4 5
11 13 8 4 5 5 2 3 1 1 1 2 1 1 1 1 1 1 2 2 2 3 2 3 4 4 4 4 3 3 3 3 3 4 4 4 4 4 4 5 5 5 5 6
5 3 3 1 0 2 1 0 0 1 1 2 2 2 1 1 1 1 1 1 1 2 2 3 3 4 4 3 2 3 3 3 3 4 4 5 5 5 5 5 5 5 5 5
5 4 2 2 2 1 1 1 1 1 1 2 2 2 1 1 1 1 1 1 1 1 2 2 2 3 3 3 3 4 4 4 4 5 5 5 5 5 5 5 5 5 5 5
7 4 4 4 2 1 1 1 1 1 1 1 1 1 1 0 0 1 1 0 0 1 1 2 2 3 3 3 3 4 4 4 5 5 4 5 5 4 5 4 4 5 6 6
5 4 4 3 2 2 2 1 1 1 0 1 1 1 1 0 0 1 1 1 1 2 2 2 2 2 3 2 3 4 4 5 4 4 3 4 4 4 4 5 4 5 6 7
4 4 3 3 3 3 2 1 1 2 1 2 1 1 1 1 1 1 2 3 2 3 3 3 3 2 3 3 4 4 5 4 4 4 4 4 4 4 4 4 6 7 7 7
4 4 4 4 4 3 2 2 1 1 1 1 2 2 2 2 2 2 3 3 3 3 3 3 3 3 3 4 4 5 6 4 5 5 5 5 5 5 5 5 5 4 6 8
6 5 6 5 4 4 3 3 3 2 2 2 2 2 3 3 3 4 3 3 3 3 3 3 4 4 4 4 4 5 5 5 5 5 5 5 5 6 6 6 5 5 4 4
5 5 5 5 5 5 5 4 4 4 3 3 3 3 4 3 4 4 4 4 4 4 4 4 4 4 4 4 5 5 5 5 6 6 6 6 6 6 6 6 6 6 5 4
6 6 6 5 5 5 4 4 4 4 4 4 4 4 4 4 4 4 4 5 4 4 5 5 5 5 5 5 6 5 5 5 6 7 6 6 6 6 6 6 6 6 5 3
5 6 5 5 5 3 3 3 3 3 3 3 3 3 4 5 5 5 5 5 5 5 5 5 5 5 5 6 5 6 5 5 5 6 6 6 6 6 7 7 7 7 5 3
3 3 4 4 3 3 3 2 3 3 3 3 3 4 4 5 5 5 5 6 6 6 6 5 4 6 6 6 6 5 6 7 6 6 6 6 7 7 7 6 6 6 6 5
2 2 2 2 2 2 2 2 2 2 3 3 4 4 5 5 6 6 6 7 6 5 5 4 6 6 6 5 6 6 6 7 7 7 7 7 7 6 6 6 7 6 6 5
1 1 1 1 0 1 1 2 2 2 3 3 4 5 5 6 7 6 7 6 4 4 5 5 6 6 5 4 6 7 7 7 7 7 7 7 7 7 7 6 6 6 6 6
0 0 0 0 0 0 1 2 2 3 3 4 5 5 6 6 7 6 7 5 4 3 5 6 5 3 4 6 7 7 7 8 7 7 7 7 7 6 6 7 6 6 5 5
0 1 1 0 0 0 1 2 3 3 4 4 5 6 6 6 6 6 5 3 4 3 5 5 3 2 5 7 7 7 8 8 7 7 6 6 6 6 6 7 6 5 5 5
1 1 1 1 1 1 2 2 3 3 3 4 4 5 5 5 4 4 4 2 3 4 5 3 3 4 7 7 7 7 6 6 6 6 6 6 6 6 5 5 5 5 4 5
1 1 1 1 2 2 2 3 3 4 4 3 4 4 4 4 4 4 4 4 3 4 5 4 4 6 7 6 6 5 5 5 5 5 6 6 5 5 5 4 4 4 4 4
1 1 1 2 2 2 3 3 3 3 3 4 3 3 3 3 3 3 3 4 5 4 5 4 4 5 5 5 5 5 5 4 4 4 5 5 5 4 3 3 4 4 4 4
2 1 2 2 2 2 3 3 3 4 4 3 3 3 3 3 3 3 4 4 4 4 4 4 4 4 4 4 4 4 4 3 3 3 3 3 3 2 2 3 3 3 3 4
Wind_Direction
249 241 226 223 218 218 231 247 259 257 250 234 224 217 201 182 178 178 171 174 174 176 175 176 178 179 180 183 183 182 182 188 189 194 198 203 205 212 221 235 240 236 238 238
227 226 230 235 232 227 232 243 251 256 253 245 232 209 197 192 192 191 183 182 180 181 179 182 183 180 179 183 183 184 189 192 190 193 196 200 203 208 219 233 244 244 240 238
228 215 230 234 228 229 231 236 249 253 251 212 217 218 218 217 213 204 193 188 184 183 185 186 184 179 182 182 181 181 187 193 193 199 206 208 209 207 218 229 236 242 242 241
234 219 233 231 208 231 238 243 250 255 244 231 241 230 220 214 214 211 200 195 187 186 182 182 178 176 183 176 183 189 194 198 198 203 208 208 210 214 222 230 233 238 241 241
231 231 234 216 200 214 227 235 239 238 230 222 204 201 181 145 145 164 171 184 179 179 175 169 170 170 172 178 181 188 198 203 204 210 217 217 216 219 224 231 238 240 239 241
231 240 237 218 167 204 234 228 197 218 223 216 212 236 155 88 78 127 139 152 161 165 165 160 163 167 176 184 187 197 204 208 209 216 223 227 229 229 228 231 238 246 243 248
230 239 242 126 145 189 225 223 136 204 218 221 222 308 57 82 93 124 137 144 152 161 167 166 168 174 189 195 202 210 212 212 213 219 225 226 230 233 236 239 242 247 248 249
226 235 228 116 179 216 30 55 127 209 219 205 170 127 108 92 103 136 139 150 156 159 161 165 173 183 196 208 214 212 218 220 223 228 235 225 224 231 234 240 241 241 244 252
235 240 63 107 107 60 60 198 172 221 199 187 185 178 138 99 96 123 141 154 174 166 167 177 184 196 209 214 217 216 221 230 238 242 240 240 233 231 232 232 246 250 250 254
228 210 194 175 164 160 213 233 263 208 211 206 193 165 135 111 66 55 66 121 186 180 192 195 203 215 223 219 220 222 224 231 232 234 239 238 242 240 242 243 250 255 258 261
226 222 208 189 179 193 204 199 200 161 195 197 182 175 140 97 35 22 34 17 258 228 233 230 227 227 229 228 227 234 236 238 242 240 240 241 241 253 251 251 256 259 263 264
228 210 236 218 209 223 226 212 195 197 219 248 221 224 245 295 351 327 328 306 279 273 271 265 252 250 244 235 235 243 245 246 248 249 244 247 247 249 231 241 233 236 254 273
255 252 266 249 249 248 227 210 230 242 250 275 279 258 247 263 294 303 290 281 278 276 278 274 264 263 267 255 244 247 254 256 261 261 253 251 254 261 264 242 224 230 239 246
225 229 232 230 234 232 214 207 225 231 235 253 261 251 247 259 273 273 277 284 287 283 281 278 270 268 268 261 252 251 256 247 250 255 259 258 255 256 258 265 261 247 227 222
229 239 235 234 230 228 224 213 213 223 226 241 250 249 251 254 264 271 274 275 274 269 271 273 277 278 273 265 262 261 262 262 258 262 261 259 259 257 257 258 262 263 258 221
230 225 219 219 223 228 228 226 231 237 241 246 251 245 247 248 262 271 268 267 266 270 274 273 273 276 270 268 266 260 255 258 264 265 262 260 259 260 260 258 258 260 257 257
223 222 219 221 225 231 236 241 243 249 254 255 251 249 244 246 255 263 266 269 274 277 274 270 269 270 268 264 268 270 268 253 236 255 261 262 263 263 264 263 262 262 262 253
227 229 226 222 224 236 251 253 253 260 267 266 261 248 248 254 263 265 263 261 259 262 263 261 263 263 265 266 270 277 274 269 263 262 264 262 262 262 262 263 266 268 269 245
226 220 214 215 222 234 248 256 261 264 266 257 253 257 261 264 266 266 266 263 261 261 261 260 255 257 261 267 271 260 268 272 270 267 265 263 259 260 263 265 267 268 269 266
163 173 176 193 219 227 246 260 267 267 265 263 264 265 268 276 274 269 269 267 268 277 273 268 257 261 264 263 263 266 267 270 271 270 268 267 265 264 263 265 267 270 270 267
120 134 139 149 163 226 260 276 273 272 275 270 267 269 271 273 271 268 269 271 271 275 273 259 257 262 265 271 256 265 266 267 269 270 269 267 267 267 267 267 268 269 268 268
334 357 127 123 60 346 309 296 286 280 278 276 275 274 272 269 267 267 267 277 282 281 273 269 267 280 288 279 268 267 264 263 265 267 268 267 265 266 269 272 271 270 270 269
267 269 256 237 266 303 291 291 291 291 293 292 289 287 286 286 284 281 280 278 279 286 280 282 297 285 274 268 268 266 263 262 262 265 269 269 269 269 271 272 274 275 274 273
269 255 258 271 274 262 269 287 298 296 292 285 289 297 295 287 284 283 287 278 280 288 287 296 280 268 263 265 268 268 266 267 267 269 271 270 271 274 276 277 278 277 276 275
298 272 266 262 260 265 270 278 282 281 280 291 300 296 286 291 296 305 307 307 312 293 290 280 250 251 259 269 271 271 270 270 275 282 280 280 279 276 277 279 280 280 280 281
260 268 289 288 301 294 285 285 289 300 304 305 308 313 310 302 296 290 288 290 293 294 293 295 284 264 268 274 276 275 273 268 266 270 284 292 287 280 280 287 287 286 285 283
236 250 254 266 271 280 288 292 299 304 309 315 321 321 316 312 312 314 310 304 301 298 302 304 298 292 291 289 286 282 281 283 289 297 298 296 297 297 297 290 291 291 291 290